Niagara Falls, NY

4:19 PM EST on November 15, 2019 (GMT -0500)
Niagara Falls International

Weather History for KIAG - September, 2019

Change the Weather History Date:

Thursday, September 26, 2019

  Actual Average Record
Temperature  
Mean Temperature 61 °F -  
Max Temperature 71 °F 65 °F 91 °F (2017)
Min Temperature 51 °F 46 °F 41 °F (1997)
Degree Days  
Heating Degree Days 4    
Growing Degree Days 11 (Base 50)    
Moisture  
Dew Point 53 °F    
Average Humidity 74    
Maximum Humidity 93    
Minimum Humidity 38    
Precipitation  
Precipitation 0.25 in - - ()
Sea Level Pressure  
Sea Level Pressure 29.79 in    
Wind  
Wind Speed 11 mph (West)    
Max Wind Speed 23 mph    
Max Gust Speed 29 mph    
Visibility 9 miles    
Events Rain , Thunderstorm    
Averages and records for this station are not official NWS values.
T = Trace of Precipitation, MM = Missing Value Source: NWS Daily Summary

Daily Weather History Graph

Daily Weather History Graph

Search for Another Location

Airport or City:

Astronomy

Sep. 26, 2019 Rise Set
Actual Time 7:07 AM EDT 7:06 PM EDT
Civil Twilight 6:38 AM EDT 7:34 PM EDT
Nautical Twilight 6:05 AM EDT 8:07 PM EDT
Astronomical Twilight 5:32 AM EDT 8:41 PM EDT
Moon 4:04 AM EDT (9/26) 6:23 PM EDT (9/26)
Length of Visible Light 12h 55m
Length of Day
11h 59m
Waning Crescent, 7% of the Moon is Illuminated
Sep 26
Waning Crescent
Sep 28
New
Oct 5
First Quarter
Oct 13
Full
Oct 21
Last Quarter

Hourly Weather History & Observations

Time (EDT) Temp. Dew Point Humidity Pressure Visibility Wind Dir Wind Speed Gust Speed Precip Events Conditions
12:53 AM 68.0 °F 60.1 °F 76% 29.72 in 10.0 mi WSW 10.4 mph - N/A   Scattered Clouds
1:53 AM 66.0 °F 60.1 °F 81% 29.71 in 10.0 mi WSW 9.2 mph - N/A   Scattered Clouds
2:53 AM 66.0 °F 60.1 °F 81% 29.71 in 10.0 mi West 9.2 mph - N/A   Clear
3:53 AM 64.9 °F 60.1 °F 84% 29.70 in 10.0 mi WSW 8.1 mph - N/A   Scattered Clouds
4:53 AM 63.0 °F 57.9 °F 84% 29.68 in 10.0 mi SW 5.8 mph - N/A   Clear
5:53 AM 62.1 °F 59.0 °F 90% 29.69 in 10.0 mi West 5.8 mph - N/A   Mostly Cloudy
6:36 AM 63.0 °F 60.1 °F 90% 29.70 in 2.5 mi WNW 11.5 mph - 0.06 in Rain Heavy Rain
6:53 AM 62.1 °F 59.0 °F 90% 29.70 in 4.0 mi NW 13.8 mph 25.3 mph 0.12 in Rain , Thunderstorm Rain
7:02 AM 62.1 °F 59.0 °F 90% 29.73 in 3.0 mi NW 17.3 mph - 0.03 in Rain , Thunderstorm Rain
7:14 AM 60.1 °F 57.0 °F 90% 29.73 in 3.0 mi NNW 13.8 mph 26.5 mph 0.09 in Rain Rain
7:53 AM 59.0 °F 57.0 °F 93% 29.74 in 10.0 mi North 5.8 mph - 0.11 in Rain Light Rain
8:53 AM 60.1 °F 57.0 °F 90% 29.75 in 8.0 mi South 4.6 mph - 0.02 in   Overcast
9:53 AM 61.0 °F 57.9 °F 90% 29.75 in 10.0 mi South 9.2 mph - 0.00 in   Mostly Cloudy
10:53 AM 62.1 °F 55.9 °F 80% 29.75 in 10.0 mi WSW 12.7 mph - N/A   Scattered Clouds
11:53 AM 64.9 °F 55.0 °F 70% 29.75 in 10.0 mi West 15.0 mph - N/A   Clear
12:53 PM 69.1 °F 55.0 °F 61% 29.76 in 10.0 mi West 16.1 mph - N/A   Clear
1:53 PM 70.0 °F 50.0 °F 49% 29.76 in 10.0 mi WSW 19.6 mph - N/A   Scattered Clouds
2:53 PM 70.0 °F 48.9 °F 47% 29.77 in 10.0 mi West 19.6 mph 27.6 mph N/A   Partly Cloudy
3:53 PM 71.1 °F 44.1 °F 38% 29.79 in 10.0 mi West 23.0 mph 26.5 mph N/A   Partly Cloudy
4:53 PM 66.9 °F 46.9 °F 49% 29.83 in 10.0 mi WNW 23.0 mph 28.8 mph N/A   Partly Cloudy
5:53 PM 64.9 °F 46.9 °F 52% 29.86 in 10.0 mi WNW 13.8 mph 20.7 mph N/A   Clear
6:53 PM 63.0 °F 43.0 °F 48% 29.90 in 10.0 mi WNW 12.7 mph - N/A   Partly Cloudy
7:53 PM 57.9 °F 44.1 °F 60% 29.93 in 10.0 mi WNW 8.1 mph - N/A   Clear
8:53 PM 55.9 °F 45.0 °F 67% 29.95 in 10.0 mi WNW 6.9 mph - N/A   Clear
9:53 PM 52.0 °F 45.0 °F 77% 29.96 in 10.0 mi West 6.9 mph - N/A   Clear
10:53 PM 51.1 °F 46.0 °F 83% 29.98 in 10.0 mi West 3.5 mph - N/A   Clear
11:53 PM 52.0 °F 46.0 °F 80% 29.99 in 10.0 mi Calm Calm - N/A   Clear